CAPE
2310 2330 2357 2253 1848 1519 1302 1109 725 488 24 12 9 24 76 98 95 137 106 126 114 161 2 154 353 118 244 270 332 363 525 527 581 774 957 1040 1068 706 518 315 424 504 495 461 388 333 288 299 351 464 469 560 574 532 414 355 363 652 607 571 572 560 408 102 38 34 50 56 47 28 50 107 114 30
2416 2414 2438 2442 2304 2116 1916 1616 1294 886 532 66 32 19 28 50 160 170 164 287 38 167 23 0 199 89 162 198 270 227 324 346 561 682 610 613 753 499 179 37 51 172 241 205 146 112 84 52 61 126 233 272 265 250 261 311 368 665 505 440 586 507 322 55 33 27 46 30 10 14 36 19 6 3
2454 2412 2426 2427 2412 2298 2216 2104 1774 1279 852 462 70 46 24 8 64 143 114 126 405 20 306 151 1 43 110 27 108 181 237 286 392 592 541 445 349 318 280 16 0 0 23 30 5 0 0 0 0 0 0 6 33 65 106 179 303 471 509 517 465 337 164 63 40 20 17 22 15 1 0 0 0 0
2496 2473 2402 2395 2395 2395 2347 2280 2139 1828 1378 854 221 54 40 65 23 106 115 106 354 152 44 132 109 4 54 82 98 202 198 211 362 547 546 454 315 372 419 96 0 0 0 0 0 0 0 0 0 0 0 0 0 6 53 117 212 282 316 348 351 142 68 36 32 36 8 6 0 0 0 0 0 0
2412 2452 2442 2408 2370 2345 2412 2424 2301 2125 1948 1572 905 420 43 70 42 28 59 147 208 259 8 36 83 91 6 73 97 179 197 213 304 431 509 498 360 376 434 358 60 0 0 0 0 0 0 0 0 0 0 0 0 0 16 56 76 76 120 197 82 6 12 17 36 7 0 0 0 0 0 0 0 0
2287 2330 2334 2348 2393 2354 2399 2470 2438 2330 2154 2000 1728 1000 532 123 95 16 133 112 175 286 131 36 143 111 61 274 222 134 189 177 236 270 417 396 368 390 396 423 356 20 0 0 0 0 0 0 0 0 0 0 0 0 0 2 6 15 46 45 6 0 0 1 10 1 0 0 0 0 0 0 0 0
2212 2250 2284 2330 2399 2382 2394 2413 2443 2382 2282 2140 1985 1736 1152 658 356 88 45 174 204 184 264 232 124 161 240 206 393 222 218 290 308 262 277 253 323 338 347 346 310 116 0 0 0 0 0 0 0 0 0 0 0 0 0 0 0 0 6 6 0 0 0 0 0 0 0 0 0 0 0 0 0 0
2158 2190 2234 2282 2334 2341 2310 2293 2324 2356 2326 2232 2118 1975 1790 1354 831 644 506 424 236 366 321 361 234 220 244 353 264 213 194 157 217 205 274 233 226 282 334 324 305 188 10 0 0 0 0 0 0 0 0 0 0 0 0 0 0 0 0 0 0 0 0 0 0 0 0 0 0 0 0 0 0 0
2181 2182 2196 2228 2235 2232 2202 2214 2190 2224 2195 2153 2111 2052 1962 1831 1569 1198 880 739 652 596 522 433 316 232 218 310 444 234 245 260 138 158 146 198 237 277 248 257 232 138 19 0 0 0 0 0 0 0 0 0 0 0 0 0 0 0 0 0 0 0 0 0 0 0 0 0 0 0 0 0 0 0
2306 2232 2218 2203 2207 2184 2148 2117 2072 2026 2002 2006 2004 1996 1957 1898 1827 1700 1453 1150 935 884 885 850 698 518 422 253 259 269 375 274 319 239 258 276 140 227 274 195 148 191 184 180 95 12 1 0 0 0 0 0 0 0 0 0 0 0 0 0 0 0 0 0 0 0 0 0 0 0 0 0 0 0
2300 2253 2238 2226 2206 2174 2128 2070 2018 1962 1916 1881 1853 1824 1798 1802 1743 1706 1669 1488 1340 1170 1000 881 793 710 612 487 382 293 153 302 368 349 325 330 306 158 178 264 178 90 110 123 72 114 119 61 22 0 0 0 0 0 0 0 0 0 0 0 0 0 0 0 0 0 0 0 0 0 0 0 0 0
2210 2282 2260 2218 2218 2184 2144 2093 2046 1982 1934 1884 1825 1792 1745 1704 1661 1632 1604 1512 1418 1330 1226 1110 1019 901 865 782 633 518 171 226 230 127 118 302 348 304 292 280 241 197 134 209 151 75 17 6 9 0 0 0 0 0 0 0 0 0 0 0 0 0 0 0 0 0 0 0 0 0 0 0 0 0
2182 2238 2248 2168 2178 2169 2159 2129 2090 2054 1988 1938 1888 1818 1739 1667 1609 1558 1506 1443 1352 1274 1188 1122 986 917 858 829 802 751 662 607 562 525 556 531 512 485 478 498 460 373 271 146 95 190 172 140 157 156 168 98 0 0 0 0 0 0 0 0 0 0 0 0 0 0 0 0 0 0 0 0 0 0
2128 2137 2114 2202 2116 2123 2136 2148 2148 2140 2122 2092 2052 1988 1898 1818 1750 1699 1621 1552 1469 1367 1293 1205 1090 1010 940 872 822 774 754 721 725 709 672 658 676 670 654 650 612 527 467 424 404 389 249 70 181 224 192 149 179 101 14 0 0 0 0 0 0 0 0 0 0 0 0 0 0 0 0 0 0 0
2143 2204 2194 2236 2167 2108 2128 2148 2169 2181 2187 2187 2177 2160 2119 2050 1980 1926 1857 1776 1696 1640 1531 1420 1307 1257 1169 1078 1022 987 966 940 896 856 831 804 800 797 806 821 817 753 660 638 615 616 593 502 486 394 250 147 126 102 93 0 0 0 0 0 0 0 0 0 0 0 0 0 0 0 0 0 0 0
2229 2286 2265 2253 2266 2324 2256 2178 2195 2206 2226 2243 2242 2233 2214 2186 2160 2143 2114 2031 1973 1916 1750 1693 1579 1521 1464 1450 1395 1366 1329 1318 1341 1406 1408 1388 1345 1354 1298 1271 1254 1277 1245 1289 1207 1100 1036 858 753 681 572 390 168 54 28 0 0 0 0 0 0 0 0 0 0 0 0 0 0 0 0 0 0 0
2267 2318 2322 2398 2452 2450 2225 2244 2272 2276 2285 2293 2282 2276 2261 2247 2235 2247 2272 2280 2240 2164 2098 1997 1947 1876 1806 1867 1977 2052 2156 2170 2112 2049 2002 1942 1899 1886 1847 1829 1822 1873 1762 1588 1478 1447 1400 1296 1184 1036 881 621 357 8 0 0 0 0 0 0 0 0 0 0 0 0 0 0 0 0 0 0 0 0
2335 2382 2400 2465 2497 2528 2510 2401 2332 2351 2473 2435 2386 2348 2338 2315 2302 2305 2326 2335 2322 2269 2228 2183 2112 2260 2334 2416 2474 2499 2506 2520 2495 2459 2442 2410 2377 2326 2267 2200 2168 1994 1877 1805 1704 1744 1602 1596 1506 1398 1330 1178 980 646 148 0 0 0 0 0 0 0 0 0 0 0 0 0 0 0 0 0 0 0
2349 2392 2447 2491 2563 2588 2603 2565 2500 2514 2507 2486 2506 2511 2462 2346 2321 2329 2358 2375 2352 2321 2317 2392 2454 2536 2583 2622 2704 2746 2768 2721 2736 2694 2576 2469 2408 2348 2328 2354 2260 2135 2104 2076 2055 2085 2056 1857 1776 1707 1604 1448 1357 1243 935 476 55 0 0 0 0 0 0 0 0 0 0 0 0 0 0 0 0 0
2270 2338 2404 2472 2526 2577 2612 2440 2394 2408 2462 2593 2590 2621 2567 2540 2377 2406 2398 2398 2454 2518 2565 2583 2657 2738 2817 2880 2907 2922 2881 2836 2800 2735 2680 2552 2475 2301 2397 2356 2378 2165 2166 2220 2236 2179 1968 1943 1732 1702 1568 1573 1436 1368 1126 935 554 110 0 0 0 0 0 12 37 38 48 34 9 0 0 0 0 0
2134 2226 2316 2386 2478 2562 2566 2348 2356 2402 2430 2463 2619 2681 2681 2632 2394 2425 2551 2618 2630 2705 2769 2831 2908 2963 2964 2920 2880 2898 2872 2792 2770 2550 2467 2345 2350 2298 2342 2239 2385 2545 2417 2409 2287 2287 2251 1677 1609 1776 1463 1420 1322 1318 1344 1073 988 492 66 11 0 0 0 1 31 41 46 42 24 0 0 0 0 0
2043 2154 1970 2160 2432 2474 2507 2274 2306 2340 2396 2457 2418 2519 2568 2578 2576 2669 2730 2792 2839 2905 2933 2990 3018 3002 2970 2909 2848 2824 2806 2821 2789 2675 2584 2575 2501 2394 2251 2290 2430 2489 2478 2391 2334 1898 1933 1983 1782 1555 1518 1409 1497 1470 1370 1226 1103 730 482 75 0 0 0 1 31 40 37 35 30 19 0 0 0 0
1914 2056 2005 1978 2057 2302 2369 2250 2194 2336 2457 2588 2659 2752 2813 2843 2839 2861 2901 2954 3035 3032 3080 3140 3122 3146 3157 3190 3234 3291 3310 3271 3170 3086 2982 2916 2835 2681 2446 2478 2487 2393 2491 2430 2346 2178 1916 2011 2018 1992 1874 1733 1720 1588 1481 1170 1166 1050 574 229 27 0 0 0 27 33 39 47 20 31 0 0 0 0
1985 2030 2180 2012 2068 2132 2257 2399 2546 2716 2792 2837 2918 2994 3057 3085 3036 2983 3096 3161 3080 3052 3194 3270 3302 3270 3267 3406 3541 3562 3492 3432 3320 3195 3073 3002 2915 2816 2802 2874 2796 2733 2747 2584 2544 2514 2494 2014 1832 1820 1834 1619 1586 1634 1562 1629 1403 1262 710 312 3 0 0 0 6 26 27 7 0 31 37 0 0 0
2072 2155 2105 2190 2320 2476 2658 2830 2962 3015 3023 3073 3128 3194 3245 3247 3217 3250 3232 3286 3254 3281 3394 3503 3540 3591 3591 3563 3536 3497 3430 3368 3259 3134 2980 2830 2735 2624 2482 2419 2414 2477 2573 2492 2269 2341 2279 2298 2006 1850 1790 1464 1454 1498 1508 1442 1339 1174 948 455 0 0 0 0 7 20 32 21 4 24 50 15 0 0
2428 2452 2511 2604 2740 2881 2978 3035 3105 3127 3159 3212 3268 3365 3505 3639 3441 3222 3346 3504 3600 3660 3636 3588 3596 3554 3460 3412 3351 3275 3250 3192 3020 2898 2791 2638 2502 2429 2397 2313 2262 2104 2066 2083 1880 1964 2085 2034 1923 1976 1928 1666 1341 1292 1215 1104 1072 996 868 771 558 0 0 0 0 0 14 0 8 15 36 22 0 0
2798 2831 2865 2957 3056 3076 3070 3134 3197 3273 3377 3453 3548 3630 3696 3680 3656 3642 3600 3640 3646 3633 3586 3538 3454 3369 3252 3148 3164 3116 2980 2905 2807 2444 2137 1963 1910 1851 1855 1914 1949 1949 1866 1850 1757 1682 1584 1644 1603 1670 1555 1522 1279 1176 1058 1002 884 809 705 634 478 405 0 0 0 0 0 0 10 4 16 11 0 0
3113 3119 3117 3165 3189 3191 3215 3309 3484 3648 3832 3860 3818 3811 3839 3758 3705 3664 3704 3742 3706 3659 3547 3398 3266 3275 3273 3180 2940 2698 2267 1878 1549 1379 1365 1388 1417 1426 1420 1384 1334 1396 1463 1596 1600 1528 1453 1362 1318 1274 1318 1320 1258 1061 999 859 720 772 752 479 584 629 370 35 0 0 0 0 7 0 7 7 1 0
3319 3298 3316 3299 3322 3359 3581 3696 3676 3684 3716 3766 3884 3862 3719 3707 3698 3670 3643 3592 3562 3450 3389 3246 3118 2676 2025 1423 1338 1312 1292 1196 1204 1122 1140 1160 1196 1225 1246 1276 1185 1172 1088 985 1087 1250 1249 1180 1122 1074 984 932 870 784 905 1006 877 771 762 700 610 506 517 259 157 0 0 0 0 0 6 13 1 0
3463 3453 3473 3437 3520 3614 3764 3850 3842 3887 3932 3943 3844 3766 3704 3622 3560 3538 3477 3274 2972 2318 1427 743 671 778 850 963 1097 953 791 724 638 536 430 423 432 536 603 645 736 850 944 916 847 837 882 890 840 801 771 716 646 595 560 682 637 609 724 759 620 730 687 471 74 29 13 5 0 0 6 17 10 0
3722 3646 3637 3698 3775 3841 3902 3965 4042 4033 3924 3734 3610 3578 3534 3471 3130 2418 1334 156 214 272 351 349 392 436 478 494 358 330 298 246 224 241 160 137 137 196 270 326 346 413 638 849 822 768 651 619 578 635 562 621 660 614 759 591 497 477 629 899 917 809 676 496 304 4 11 16 14 8 15 16 2 0
3864 3824 3850 3891 3976 3918 3954 4087 3929 3718 3674 3596 3488 3248 2609 1608 428 1 1 2 1 2 4 4 5 5 9 13 13 14 12 11 8 8 12 18 14 17 29 26 14 60 182 450 737 810 702 662 615 491 376 346 460 480 553 572 612 537 603 514 419 226 244 285 359 318 31 31 30 28 32 24 13 1
4108 4092 4151 4180 4161 4055 3858 3832 3810 3656 3362 2797 2172 1352 4 1 0 0 1 1 2 3 6 7 7 6 9 9 9 11 9 6 4 4 11 10 16 14 22 18 12 18 19 23 128 489 694 591 534 470 492 479 410 437 482 366 372 350 319 294 316 438 534 432 486 4 18 26 21 24 15 10 7 1
4388 4225 4053 3926 3849 3809 3754 3508 3060 2646 2060 1259 194 0 1 2 1 2 2 3 4 8 10 10 10 8 11 9 7 9 8 7 8 8 9 12 14 15 10 10 8 18 28 36 34 21 29 263 463 458 447 470 427 499 553 512 496 484 470 506 491 492 362 231 0 66 135 26 12 16 7 2 0 2
4021 3985 3929 3822 3536 3189 2980 2693 2180 1419 248 1 0 0 2 2 2 2 2 3 6 8 6 4 7 10 10 6 8 8 10 15 15 12 10 18 17 16 13 12 7 9 20 28 40 114 177 196 252 248 270 293 272 328 433 546 457 496 449 426 270 287 261 273 28 118 1 2 12 5 8 0 0 0
3826 3649 3325 3130 2924 2587 2208 1841 508 1 1 1 1 1 1 1 2 2 2 4 4 4 5 5 4 5 6 6 7 10 12 16 13 13 12 12 14 14 14 12 14 16 22 26 28 39 67 172 130 22 23 34 42 72 67 95 133 232 250 149 81 34 46 50 36 19 0 1 3 0 0 2 1 0
3598 3321 2805 2026 1663 1173 384 0 1 2 2 2 1 2 1 2 2 2 3 6 5 4 4 4 4 6 5 6 6 5 6 8 7 6 8 10 14 16 16 13 14 19 25 24 37 46 79 83 42 15 14 30 67 73 10 64 160 99 37 26 12 14 0 6 12 0 1 0 0 8 4 1 0 0
2983 2080 1624 1039 396 1 2 1 2 2 2 2 2 2 2 2 2 2 3 3 2 2 1 2 2 2 2 3 2 3 2 2 5 5 5 6 8 8 9 10 10 14 23 31 43 55 62 42 16 6 7 19 49 77 118 144 31 2 77 50 22 19 0 32 1 4 1 0 3 18 8 0 0 0
1977 1476 942 151 1 2 2 2 2 2 2 2 2 1 2 2 2 2 0 0 0 0 0 0 1 1 1 0 1 0 1 2 3 4 3 3 5 5 5 6 7 8 15 14 8 1 2 2 1 0 1 3 8 13 2 6 0 0 0 0 2 0 0 0 0 0 0 0 1 1 0 0 0 0
1470 786 2 2 2 2 2 2 2 2 2 2 2 2 2 1 1 1 0 0 1 1 0 0 0 0 0 0 0 1 2 3 4 4 4 4 4 3 5 3 6 7 2 1 0 0 1 1 0 0 0 0 1 0 0 0 124 9 0 0 0 0 0 2 0 0 0 0 1 0 0 0 0 0
744 1 2 2 2 2 1 2 2 2 1 2 2 2 1 1 1 0 0 1 0 0 0 0 0 0 0 0 0 0 0 0 0 0 1 1 2 4 2 1 7 8 2 1 4 0 0 0 0 0 0 0 0 0 0 0 0 1 1 0 0 0 0 0 0 0 0 0 0 1 0 0 0 0
1 0 1 2 1 1 2 1 1 2 2 2 2 1 1 0 0 0 0 0 0 0 0 0 0 0 0 0 0 0 0 0 0 0 1 1 2 3 4 4 6 7 6 4 4 3 6 6 12 4 0 0 0 0 1 0 1 0 0 0 0 0 0 0 1 1 0 0 0 0 0 0 0 1
2 2 2 3 3 4 4 2 3 2 2 1 2 1 0 0 0 0 0 0 0 0 0 0 0 0 0 0 0 0 0 0 0 0 2 2 2 2 3 3 4 3 6 8 10 13 14 12 8 17 14 3 3 0 1 2 2 0 0 0 0 0 0 0 0 1 1 1 0 0 0 0 0 0
4 4 4 4 4 4 4 2 2 2 2 2 0 0 0 0 0 0 0 0 0 0 0 0 0 0 0 0 0 0 0 0 0 0 1 2 3 4 3 2 1 2 4 6 7 4 5 2 2 0 0 3 2 2 4 2 1 0 2 1 0 0 0 0 0 1 0 0 0 0 0 0 0 0
6 7 7 7 6 5 4 2 2 2 2 1 1 0 0 0 0 0 0 0 0 0 0 0 0 0 0 0 0 0 0 0 0 0 0 1 2 1 0 0 0 0 0 4 5 2 0 0 0 0 0 0 0 0 0 2 3 2 0 0 0 0 0 0 0 0 0 0 0 0 0 0 0 0
Wind_Speed
9 9 10 11 11 10 9 9 9 10 nan nan nan nan nan nan nan 13 13 15 15 13 nan 14 13 17 17 17 16 17 18 20 21 19 19 19 19 22 25 27 27 28 29 29 30 32 33 34 34 34 35 35 35 36 35 35 35 36 35 33 32 32 31 31 nan nan nan nan nan nan nan 26 27 nan
6 7 7 8 9 8 9 9 8 8 9 nan nan nan nan nan 14 13 14 15 nan 14 nan nan 13 nan 15 15 15 17 18 19 22 20 20 21 21 25 28 nan nan 30 30 31 31 33 nan nan nan 36 36 37 36 36 35 34 34 34 34 33 35 35 33 nan nan nan nan nan nan nan nan nan nan nan
5 6 7 7 8 7 8 8 7 7 7 8 nan nan nan nan nan 13 11 12 12 nan 12 13 nan nan 13 nan 15 15 16 18 21 20 20 21 24 27 25 nan nan nan nan nan nan nan nan nan nan nan nan nan nan nan 36 35 34 33 33 35 36 35 34 nan nan nan nan nan nan nan nan nan nan nan
5 6 7 7 7 6 6 6 7 8 7 7 7 nan nan nan nan 11 11 13 17 11 nan 13 12 nan nan nan nan 16 16 17 22 20 20 21 23 22 22 nan nan nan nan nan nan nan nan nan nan nan nan nan nan nan nan 36 34 34 35 36 36 36 nan nan nan nan nan nan nan nan nan nan nan nan
4 5 6 6 6 6 6 6 5 6 7 6 6 6 nan nan nan nan nan 13 15 12 nan nan nan nan nan nan nan 17 16 17 19 21 21 22 22 23 23 24 nan nan nan nan nan nan nan nan nan nan nan nan nan nan nan nan nan nan 36 37 nan nan nan nan nan nan nan nan nan nan nan nan nan nan
4 4 5 5 6 7 6 5 5 5 5 5 5 5 7 8 nan nan 11 12 11 15 10 nan 11 11 nan 14 15 19 18 18 19 21 22 23 24 24 24 25 26 nan nan nan nan nan nan nan nan nan nan nan nan nan nan nan nan nan nan nan nan nan nan nan nan nan nan nan nan nan nan nan nan nan
5 5 5 5 5 6 5 5 4 3 4 4 5 7 7 9 9 nan nan 12 13 14 14 12 13 15 16 19 18 20 19 19 21 22 24 26 26 26 26 26 26 31 nan nan nan nan nan nan nan nan nan nan nan nan nan nan nan nan nan nan nan nan nan nan nan nan nan nan nan nan nan nan nan nan
6 6 5 4 5 6 6 4 3 3 3 4 4 5 6 8 9 8 10 13 14 12 12 13 16 15 17 18 20 20 20 22 24 26 25 26 27 28 28 29 27 29 nan nan nan nan nan nan nan nan nan nan nan nan nan nan nan nan nan nan nan nan nan nan nan nan nan nan nan nan nan nan nan nan
7 6 5 4 4 5 4 3 3 3 6 6 6 7 7 9 9 8 11 13 13 14 15 13 14 18 19 19 19 24 24 25 26 27 29 30 30 29 30 29 29 29 nan nan nan nan nan nan nan nan nan nan nan nan nan nan nan nan nan nan nan nan nan nan nan nan nan nan nan nan nan nan nan nan
6 5 4 2 3 4 4 4 5 5 8 7 9 10 9 9 9 11 12 13 14 15 16 15 13 17 19 19 22 25 27 25 24 26 28 28 30 30 29 32 32 33 31 31 nan nan nan nan nan nan nan nan nan nan nan nan nan nan nan nan nan nan nan nan nan nan nan nan nan nan nan nan nan nan
4 3 2 1 2 2 3 5 6 7 8 8 11 12 11 11 12 13 15 16 17 17 17 17 18 18 20 23 20 23 28 27 27 26 25 26 29 33 33 31 35 nan 35 34 nan 34 34 nan nan nan nan nan nan nan nan nan nan nan nan nan nan nan nan nan nan nan nan nan nan nan nan nan nan nan
3 2 2 1 1 2 3 5 7 7 8 8 10 10 11 12 15 16 17 19 19 20 20 20 20 21 21 22 24 23 27 27 27 33 33 30 27 32 37 37 36 38 39 37 35 nan nan nan nan nan nan nan nan nan nan nan nan nan nan nan nan nan nan nan nan nan nan nan nan nan nan nan nan nan
6 6 5 4 3 4 7 10 9 9 10 8 9 10 12 13 15 16 17 19 20 20 20 20 21 21 22 23 23 25 28 31 31 31 40 36 34 34 34 36 39 40 40 39 nan 37 40 39 38 37 35 nan nan nan nan nan nan nan nan nan nan nan nan nan nan nan nan nan nan nan nan nan nan nan
7 6 6 5 5 7 8 9 11 12 14 16 13 12 13 14 16 17 18 20 20 20 21 23 23 23 24 24 26 26 27 28 31 34 40 39 37 37 36 34 38 41 43 40 36 35 40 nan 38 38 36 37 41 40 nan nan nan nan nan nan nan nan nan nan nan nan nan nan nan nan nan nan nan nan
6 6 5 4 2 4 5 7 12 14 16 17 19 21 20 20 20 19 20 20 21 22 23 24 25 27 25 25 27 28 29 33 36 37 39 40 38 39 37 33 35 44 44 42 38 33 40 45 41 40 39 43 48 46 nan nan nan nan nan nan nan nan nan nan nan nan nan nan nan nan nan nan nan nan
6 5 4 3 2 1 4 6 8 11 14 17 19 21 22 23 25 25 24 23 23 26 26 27 29 29 28 27 31 33 35 36 38 38 40 42 42 41 41 39 36 40 46 43 41 37 42 48 46 43 45 50 53 nan nan nan nan nan nan nan nan nan nan nan nan nan nan nan nan nan nan nan nan nan
5 4 4 3 2 2 6 7 7 8 9 14 19 20 21 22 24 25 28 29 29 28 30 30 29 32 31 31 34 39 39 38 37 37 39 42 46 47 45 43 41 43 50 47 47 43 45 52 48 45 47 52 52 nan nan nan nan nan nan nan nan nan nan nan nan nan nan nan nan nan nan nan nan nan
6 4 3 2 3 4 6 8 10 11 11 10 12 15 19 21 22 25 29 31 33 34 32 30 29 30 37 35 34 36 40 40 41 41 40 44 47 50 48 45 44 46 55 52 50 45 44 53 48 44 47 54 53 52 55 nan nan nan nan nan nan nan nan nan nan nan nan nan nan nan nan nan nan nan
5 4 4 3 2 4 7 10 13 15 14 14 13 14 18 23 25 27 29 33 35 34 34 33 34 33 35 36 35 35 40 45 46 46 44 44 46 46 44 41 43 44 52 50 53 48 44 54 49 44 48 56 55 53 57 64 nan nan nan nan nan nan nan nan nan nan nan nan nan nan nan nan nan nan
5 5 4 4 4 5 7 11 17 18 17 16 14 14 17 20 24 26 29 34 37 37 37 38 39 39 40 40 38 38 40 44 46 47 45 43 45 45 44 41 42 44 51 54 54 53 48 52 51 41 45 55 56 55 59 66 66 64 nan nan nan nan nan nan nan nan nan nan nan nan nan nan nan nan
6 5 6 7 6 7 8 11 17 19 21 18 16 15 16 20 22 24 26 33 37 39 41 44 45 44 41 39 38 38 39 43 44 46 45 45 49 48 45 42 41 42 49 51 55 55 50 48 49 42 43 50 50 51 58 62 63 64 nan nan nan nan nan nan nan nan nan nan nan nan nan nan nan nan
8 6 6 8 9 8 9 11 16 20 24 22 19 16 15 18 22 23 25 28 33 40 42 42 41 40 38 36 36 36 37 39 43 48 46 44 49 50 49 44 42 40 44 47 59 55 46 42 47 45 44 46 46 48 53 56 56 59 55 nan nan nan nan nan nan nan nan nan nan nan nan nan nan nan
11 10 11 10 10 11 11 13 17 21 27 25 22 18 16 19 22 24 24 26 28 32 35 36 36 34 34 35 36 35 36 39 42 47 47 43 46 49 48 47 45 40 39 47 60 52 42 43 43 45 47 44 43 46 50 53 53 55 53 51 nan nan nan nan nan nan nan nan nan nan nan nan nan nan
15 15 15 15 14 12 12 14 18 22 29 27 23 20 19 20 23 25 26 29 32 32 33 32 33 34 36 35 35 36 37 39 44 45 49 50 50 50 49 49 51 47 40 48 59 49 43 47 42 47 49 45 40 43 50 53 55 53 51 54 nan nan nan nan nan nan nan nan nan nan nan nan nan nan
17 17 18 18 17 17 17 18 19 22 28 29 26 24 20 23 27 30 30 29 31 30 29 30 29 31 33 34 36 39 39 40 43 45 47 49 51 53 52 50 51 47 42 45 57 49 44 48 43 44 46 48 43 42 47 50 53 52 53 55 nan nan nan nan nan nan nan nan nan nan nan nan nan nan
19 18 18 19 18 18 20 20 22 25 29 31 32 28 22 19 29 31 31 31 32 33 34 33 32 33 35 37 36 38 38 40 44 46 48 48 50 53 53 50 48 44 40 44 56 47 45 44 46 45 45 45 43 45 43 47 49 50 54 54 54 nan nan nan nan nan nan nan nan nan nan nan nan nan
18 18 20 20 21 25 26 27 27 30 33 36 35 32 26 16 19 33 35 34 35 36 38 40 39 38 40 40 39 39 40 40 43 45 46 47 48 48 49 49 47 43 37 34 43 44 47 44 48 47 45 47 44 44 44 43 45 51 52 52 51 52 nan nan nan nan nan nan nan nan nan nan nan nan
19 20 23 30 39 40 41 40 39 38 41 39 39 40 41 35 27 34 41 41 42 42 43 44 43 41 43 44 40 41 43 43 43 44 45 43 43 43 42 43 43 42 36 32 33 41 46 44 46 48 47 48 48 47 42 44 44 50 52 53 50 49 51 nan nan nan nan nan nan nan nan nan nan nan
26 34 38 37 35 35 35 38 40 41 40 40 42 43 43 42 40 40 41 43 44 44 45 44 43 42 43 44 43 43 43 42 42 43 43 40 40 39 39 38 38 37 36 34 35 38 42 45 45 47 49 50 50 49 48 45 48 49 51 55 52 52 53 53 55 nan nan nan nan nan nan nan nan nan
34 32 32 33 34 35 37 36 37 38 41 42 44 44 45 45 45 44 44 44 45 45 45 43 41 41 41 41 42 41 42 42 42 41 40 37 36 37 37 37 36 35 34 35 37 39 41 43 44 44 44 46 49 48 50 47 46 52 56 56 53 57 56 56 nan nan nan nan nan nan nan nan nan nan
27 28 31 36 38 41 42 43 43 44 44 46 47 47 47 48 48 47 48 48 48 47 45 44 43 42 41 40 39 41 42 41 41 41 40 38 36 36 36 37 33 31 34 37 38 42 44 46 47 49 46 46 47 48 49 50 49 55 56 56 60 59 56 55 55 nan nan nan nan nan nan nan nan nan
35 37 41 43 44 45 46 46 46 47 47 48 50 50 50 50 50 nan nan nan nan nan nan nan nan nan nan nan nan nan nan nan nan nan nan nan nan nan nan nan nan nan 30 34 37 41 44 45 48 51 52 50 47 44 44 46 49 56 59 61 60 56 59 59 56 55 nan nan nan nan nan nan nan nan
42 44 45 46 46 46 47 47 47 48 49 51 51 52 nan nan nan nan nan nan nan nan nan nan nan nan nan nan nan nan nan nan nan nan nan nan nan nan nan nan nan nan nan nan 36 38 42 41 43 43 46 47 47 45 45 46 50 54 58 60 58 56 56 53 54 nan nan nan nan nan nan nan nan nan
43 44 45 45 46 46 47 47 48 49 51 52 52 nan nan nan nan nan nan nan nan nan nan nan nan nan nan nan nan nan nan nan nan nan nan nan nan nan nan nan nan nan nan nan nan nan nan 42 42 43 43 42 42 45 46 47 47 53 57 60 59 54 50 50 nan nan 54 nan nan nan nan nan nan nan
44 45 47 46 47 48 50 52 51 52 52 nan nan nan nan nan nan nan nan nan nan nan nan nan nan nan nan nan nan nan nan nan nan nan nan nan nan nan nan nan nan nan nan nan nan 41 41 40 40 38 39 40 37 41 45 43 41 46 54 57 58 52 46 42 nan 46 nan nan nan nan nan nan nan nan
49 49 50 51 51 51 53 52 52 nan nan nan nan nan nan nan nan nan nan nan nan nan nan nan nan nan nan nan nan nan nan nan nan nan nan nan nan nan nan nan nan nan nan nan nan nan nan 39 37 nan nan nan nan nan nan nan 46 58 62 61 nan nan nan nan nan nan nan nan nan nan nan nan nan nan
52 52 53 54 53 52 52 nan nan nan nan nan nan nan nan nan nan nan nan nan nan nan nan nan nan nan nan nan nan nan nan nan nan nan nan nan nan nan nan nan nan nan nan nan nan nan nan nan nan nan nan nan nan nan nan nan 43 nan nan nan nan nan nan nan nan nan nan nan nan nan nan nan nan nan
55 54 53 52 51 nan nan nan nan nan nan nan nan nan nan nan nan nan nan nan nan nan nan nan nan nan nan nan nan nan nan nan nan nan nan nan nan nan nan nan nan nan nan nan nan nan nan nan nan nan nan nan nan nan 44 45 nan nan nan nan nan nan nan nan nan nan nan nan nan nan nan nan nan nan
52 52 52 52 nan nan nan nan nan nan nan nan nan nan nan nan nan nan nan nan nan nan nan nan nan nan nan nan nan nan nan nan nan nan nan nan nan nan nan nan nan nan nan nan nan nan nan nan nan nan nan nan nan nan nan nan nan nan nan nan nan nan nan nan nan nan nan nan nan nan nan nan nan nan
52 53 nan nan nan nan nan nan nan nan nan nan nan nan nan nan nan nan nan nan nan nan nan nan nan nan nan nan nan nan nan nan nan nan nan nan nan nan nan nan nan nan nan nan nan nan nan nan nan nan nan nan nan nan nan nan 49 nan nan nan nan nan nan nan nan nan nan nan nan nan nan nan nan nan
52 nan nan nan nan nan nan nan nan nan nan nan nan nan nan nan nan nan nan nan nan nan nan nan nan nan nan nan nan nan nan nan nan nan nan nan nan nan nan nan nan nan nan nan nan nan nan nan nan nan nan nan nan nan nan nan nan nan nan nan nan nan nan nan nan nan nan nan nan nan nan nan nan nan
nan nan nan nan nan nan nan nan nan nan nan nan nan nan nan nan nan nan nan nan nan nan nan nan nan nan nan nan nan nan nan nan nan nan nan nan nan nan nan nan nan nan nan nan nan nan nan nan nan nan nan nan nan nan nan nan nan nan nan nan nan nan nan nan nan nan nan nan nan nan nan nan nan nan
nan nan nan nan nan nan nan nan nan nan nan nan nan nan nan nan nan nan nan nan nan nan nan nan nan nan nan nan nan nan nan nan nan nan nan nan nan nan nan nan nan nan nan nan nan nan nan nan nan nan nan nan nan nan nan nan nan nan nan nan nan nan nan nan nan nan nan nan nan nan nan nan nan nan
nan nan nan nan nan nan nan nan nan nan nan nan nan nan nan nan nan nan nan nan nan nan nan nan nan nan nan nan nan nan nan nan nan nan nan nan nan nan nan nan nan nan nan nan nan nan nan nan nan nan nan nan nan nan nan nan nan nan nan nan nan nan nan nan nan nan nan nan nan nan nan nan nan nan
nan nan nan nan nan nan nan nan nan nan nan nan nan nan nan nan nan nan nan nan nan nan nan nan nan nan nan nan nan nan nan nan nan nan nan nan nan nan nan nan nan nan nan nan nan nan nan nan nan nan nan nan nan nan nan nan nan nan nan nan nan nan nan nan nan nan nan nan nan nan nan nan nan nan
Wind_Direction
50 46 32 32 33 22 11 17 24 27 nan nan nan nan nan nan nan 64 68 67 64 63 nan 48 56 37 36 36 27 24 26 27 24 21 21 19 16 18 19 19 20 22 24 25 24 22 21 21 21 20 20 19 18 16 13 10 10 10 11 12 9 6 0 353 nan nan nan nan nan nan nan 338 334 nan
37 43 37 31 38 18 8 16 17 16 21 nan nan nan nan nan 38 42 57 68 nan 54 nan nan 47 nan 32 27 24 18 20 17 16 11 11 11 12 18 17 nan nan 21 23 24 23 21 nan nan nan 19 19 19 19 18 15 12 12 10 11 9 6 2 359 nan nan nan nan nan nan nan nan nan nan nan
9 26 34 23 35 13 13 7 6 11 6 14 nan nan nan nan nan 36 35 64 53 nan 43 36 nan nan 27 nan 19 15 15 11 11 8 6 7 16 18 16 nan nan nan nan nan nan nan nan nan nan nan nan nan nan nan 16 13 12 9 7 4 4 2 360 nan nan nan nan nan nan nan nan nan nan nan
350 11 30 25 21 3 1 9 4 3 5 358 10 nan nan nan nan 23 26 37 66 24 nan 34 28 nan nan nan nan 16 11 4 10 5 6 9 12 9 9 nan nan nan nan nan nan nan nan nan nan nan nan nan nan nan nan 14 11 7 5 4 4 3 nan nan nan nan nan nan nan nan nan nan nan nan
346 2 19 23 9 334 356 7 8 9 360 355 11 10 nan nan nan nan nan 35 60 58 nan nan nan nan nan nan nan 13 8 4 359 2 4 4 6 6 3 4 nan nan nan nan nan nan nan nan nan nan nan nan nan nan nan nan nan nan 3 3 nan nan nan nan nan nan nan nan nan nan nan nan nan nan
330 339 359 12 352 328 352 351 7 9 356 359 8 12 13 23 nan nan 16 30 33 69 28 nan 7 14 nan 13 354 5 7 8 356 358 358 360 4 4 1 359 1 nan nan nan nan nan nan nan nan nan nan nan nan nan nan nan nan nan nan nan nan nan nan nan nan nan nan nan nan nan nan nan nan nan
317 339 349 3 335 313 337 348 1 345 11 5 25 29 11 26 25 nan nan 17 36 44 56 19 22 8 357 2 6 359 2 2 351 354 355 360 359 359 360 359 358 5 nan nan nan nan nan nan nan nan nan nan nan nan nan nan nan nan nan nan nan nan nan nan nan nan nan nan nan nan nan nan nan nan
317 335 338 11 344 321 337 350 353 6 29 43 48 50 33 32 39 17 11 28 33 38 45 29 7 2 358 1 358 352 351 354 353 353 353 354 360 358 355 358 357 0 nan nan nan nan nan nan nan nan nan nan nan nan nan nan nan nan nan nan nan nan nan nan nan nan nan nan nan nan nan nan nan nan
311 319 351 20 336 319 340 9 33 36 48 62 61 59 50 43 40 23 21 27 21 28 34 33 9 354 357 357 351 343 350 352 353 352 355 356 356 354 354 351 353 1 nan nan nan nan nan nan nan nan nan nan nan nan nan nan nan nan nan nan nan nan nan nan nan nan nan nan nan nan nan nan nan nan
297 309 342 11 330 317 346 34 48 54 60 61 59 53 50 42 28 25 22 19 18 14 26 21 21 4 6 3 356 346 347 354 355 353 352 353 351 346 347 348 344 340 341 340 nan nan nan nan nan nan nan nan nan nan nan nan nan nan nan nan nan nan nan nan nan nan nan nan nan nan nan nan nan nan
270 285 295 320 314 358 22 52 58 57 58 55 55 47 36 23 15 12 9 9 12 9 13 11 6 11 4 357 6 350 342 352 353 352 355 357 346 337 341 344 339 nan 339 343 nan 350 347 nan nan nan nan nan nan nan nan nan nan nan nan nan nan nan nan nan nan nan nan nan nan nan nan nan nan nan
204 197 177 159 156 78 67 64 68 53 56 44 46 32 12 9 9 9 4 2 2 4 5 4 8 4 8 353 350 343 339 347 348 343 348 359 353 342 339 342 342 337 331 335 337 nan nan nan nan nan nan nan nan nan nan nan nan nan nan nan nan nan nan nan nan nan nan nan nan nan nan nan nan nan
177 173 168 159 136 91 71 56 53 47 40 32 35 30 358 6 3 2 358 356 354 357 359 4 4 4 3 356 348 345 344 345 353 342 336 349 348 343 344 345 339 334 332 331 nan 336 334 331 329 330 332 nan nan nan nan nan nan nan nan nan nan nan nan nan nan nan nan nan nan nan nan nan nan nan
176 174 170 156 88 69 60 51 45 46 42 37 33 30 352 359 356 356 354 351 349 351 358 1 360 358 359 349 343 346 342 338 336 339 340 347 350 340 346 351 343 334 329 332 339 340 325 nan 325 326 330 328 327 323 nan nan nan nan nan nan nan nan nan nan nan nan nan nan nan nan nan nan nan nan
179 190 184 170 108 53 43 38 37 37 38 38 35 33 21 4 357 351 355 353 347 351 359 0 355 354 359 351 339 340 336 331 338 343 343 344 342 342 345 354 339 331 331 330 336 339 321 318 325 327 326 325 325 325 nan nan nan nan nan nan nan nan nan nan nan nan nan nan nan nan nan nan nan nan
198 189 188 199 218 278 346 355 6 19 31 34 33 28 19 12 10 6 359 356 354 0 4 4 359 352 352 353 345 340 337 343 343 343 339 342 340 342 342 344 343 330 325 331 329 329 319 321 323 327 330 328 325 nan nan nan nan nan nan nan nan nan nan nan nan nan nan nan nan nan nan nan nan nan
198 190 187 200 241 270 10 358 340 335 355 17 30 27 15 7 8 9 8 1 358 355 356 358 1 348 345 353 352 343 344 342 343 339 341 341 339 339 338 339 339 334 324 327 325 329 331 323 323 331 335 326 323 nan nan nan nan nan nan nan nan nan nan nan nan nan nan nan nan nan nan nan nan nan
215 209 205 223 245 288 315 319 321 323 335 352 357 354 338 337 353 1 3 1 2 4 356 356 360 353 342 353 354 344 337 338 341 339 341 339 340 334 338 342 342 330 320 329 324 327 328 321 325 336 332 322 323 326 328 nan nan nan nan nan nan nan nan nan nan nan nan nan nan nan nan nan nan nan
215 222 247 264 273 298 309 314 320 319 326 335 341 347 336 329 333 338 341 340 340 340 346 352 355 356 350 351 353 346 339 340 342 339 339 339 336 329 329 335 334 328 321 323 322 328 323 313 323 332 327 318 317 320 320 320 nan nan nan nan nan nan nan nan nan nan nan nan nan nan nan nan nan nan
226 240 264 269 273 294 307 319 333 332 324 321 334 341 336 328 330 335 339 344 344 345 343 344 346 347 350 353 351 349 342 338 336 332 332 331 324 323 329 333 328 328 316 322 324 321 320 319 323 331 323 314 318 321 314 313 319 322 nan nan nan nan nan nan nan nan nan nan nan nan nan nan nan nan
237 253 273 279 272 283 295 313 323 328 323 316 321 334 334 326 327 328 329 340 347 349 352 355 354 354 355 355 356 354 350 343 336 326 328 333 324 324 327 329 327 327 319 321 321 316 321 327 323 323 318 317 320 321 315 312 320 323 nan nan nan nan nan nan nan nan nan nan nan nan nan nan nan nan
244 261 301 291 280 279 282 302 314 318 313 307 316 326 338 336 330 325 329 323 327 343 352 354 351 350 349 351 354 353 348 346 335 328 334 334 323 323 324 326 325 321 319 319 314 314 323 321 316 319 315 311 318 319 314 314 313 319 321 nan nan nan nan nan nan nan nan nan nan nan nan nan nan nan
243 250 263 288 288 280 284 301 306 313 306 305 311 323 336 334 326 325 326 327 333 328 326 326 325 326 333 333 331 338 350 346 336 328 330 329 325 325 325 323 318 318 323 320 313 312 317 318 321 319 311 315 319 317 313 313 313 312 310 309 nan nan nan nan nan nan nan nan nan nan nan nan nan nan
246 253 256 267 288 301 304 305 308 308 311 308 312 318 324 328 329 321 323 328 322 318 315 315 316 319 318 322 328 332 334 335 332 332 329 328 326 326 326 324 321 320 322 312 312 313 312 315 323 321 318 317 318 317 310 313 316 317 315 309 nan nan nan nan nan nan nan nan nan nan nan nan nan nan
250 253 258 262 278 297 305 309 310 308 309 313 313 317 327 336 324 306 315 314 306 307 312 315 320 320 320 326 331 332 332 331 329 331 333 330 328 326 326 325 321 321 324 316 311 310 313 317 324 320 317 318 323 317 309 314 316 322 319 311 nan nan nan nan nan nan nan nan nan nan nan nan nan nan
256 259 262 264 276 289 293 297 301 306 307 313 309 317 335 342 312 308 309 305 305 310 315 320 324 325 327 329 333 332 333 335 334 332 331 332 331 329 329 328 324 321 325 315 315 314 316 316 321 320 319 317 320 319 317 316 317 320 317 314 308 nan nan nan nan nan nan nan nan nan nan nan nan nan
265 267 268 268 269 273 276 279 285 294 304 304 309 316 311 323 322 309 306 310 312 315 318 319 322 323 323 323 326 327 330 335 336 333 332 332 332 332 331 332 329 330 328 318 311 314 316 319 318 322 322 320 321 319 321 321 316 310 312 314 311 309 nan nan nan nan nan nan nan nan nan nan nan nan
270 270 268 267 267 271 275 279 285 293 298 301 310 312 315 323 322 303 305 308 310 311 314 317 320 323 320 321 326 328 329 333 336 333 330 331 331 331 330 330 333 334 333 324 317 314 316 320 321 323 324 322 322 323 325 319 314 311 315 310 309 303 299 nan nan nan nan nan nan nan nan nan nan nan
264 265 269 269 269 271 273 281 287 291 298 303 306 309 312 314 306 304 304 304 304 308 311 314 317 319 319 320 325 326 330 335 335 331 327 329 331 330 330 332 332 332 324 316 313 313 317 321 324 322 323 323 324 324 321 319 316 315 313 307 306 302 298 297 297 nan nan nan nan nan nan nan nan nan
262 265 264 270 273 274 275 279 283 286 290 297 302 304 306 302 304 303 303 302 304 307 309 311 314 315 315 319 322 325 329 332 333 328 325 327 330 327 327 330 334 332 325 317 314 314 316 317 318 315 316 317 319 322 321 319 319 317 318 317 309 293 294 297 nan nan nan nan nan nan nan nan nan nan
266 268 271 273 275 274 277 279 280 282 285 288 292 294 297 299 299 301 302 304 305 308 309 311 313 314 316 319 323 325 326 330 330 325 323 326 328 325 326 330 335 331 322 317 316 319 321 322 322 322 322 318 316 320 323 322 326 322 319 313 304 303 300 299 298 nan nan nan nan nan nan nan nan nan
271 273 272 273 274 276 276 277 278 279 281 283 286 289 293 296 297 nan nan nan nan nan nan nan nan nan nan nan nan nan nan nan nan nan nan nan nan nan nan nan nan nan 321 316 315 317 321 324 322 321 323 324 324 319 313 315 318 319 322 321 317 309 298 301 299 296 nan nan nan nan nan nan nan nan
267 270 271 272 273 274 278 280 281 283 284 285 287 288 nan nan nan nan nan nan nan nan nan nan nan nan nan nan nan nan nan nan nan nan nan nan nan nan nan nan nan nan nan nan 318 317 316 317 318 321 322 323 324 324 320 323 326 327 327 325 317 306 298 298 294 nan nan nan nan nan nan nan nan nan
270 270 271 272 275 278 280 281 281 282 283 284 286 nan nan nan nan nan nan nan nan nan nan nan nan nan nan nan nan nan nan nan nan nan nan nan nan nan nan nan nan nan nan nan nan nan nan 318 318 321 323 323 323 327 328 329 333 332 332 326 316 305 297 295 nan nan 293 nan nan nan nan nan nan nan
268 272 272 274 275 277 278 278 280 281 282 nan nan nan nan nan nan nan nan nan nan nan nan nan nan nan nan nan nan nan nan nan nan nan nan nan nan nan nan nan nan nan nan nan nan 318 318 318 319 320 315 305 308 310 307 312 324 319 319 317 314 304 292 285 nan 282 nan nan nan nan nan nan nan nan
270 273 275 275 275 276 277 279 280 nan nan nan nan nan nan nan nan nan nan nan nan nan nan nan nan nan nan nan nan nan nan nan nan nan nan nan nan nan nan nan nan nan nan nan nan nan nan 322 325 nan nan nan nan nan nan nan 322 326 326 324 nan nan nan nan nan nan nan nan nan nan nan nan nan nan
274 274 275 276 277 278 279 nan nan nan nan nan nan nan nan nan nan nan nan nan nan nan nan nan nan nan nan nan nan nan nan nan nan nan nan nan nan nan nan nan nan nan nan nan nan nan nan nan nan nan nan nan nan nan nan nan 316 nan nan nan nan nan nan nan nan nan nan nan nan nan nan nan nan nan
274 276 276 277 278 nan nan nan nan nan nan nan nan nan nan nan nan nan nan nan nan nan nan nan nan nan nan nan nan nan nan nan nan nan nan nan nan nan nan nan nan nan nan nan nan nan nan nan nan nan nan nan nan nan 323 315 nan nan nan nan nan nan nan nan nan nan nan nan nan nan nan nan nan nan
274 275 276 278 nan nan nan nan nan nan nan nan nan nan nan nan nan nan nan nan nan nan nan nan nan nan nan nan nan nan nan nan nan nan nan nan nan nan nan nan nan nan nan nan nan nan nan nan nan nan nan nan nan nan nan nan nan nan nan nan nan nan nan nan nan nan nan nan nan nan nan nan nan nan
275 275 nan nan nan nan nan nan nan nan nan nan nan nan nan nan nan nan nan nan nan nan nan nan nan nan nan nan nan nan nan nan nan nan nan nan nan nan nan nan nan nan nan nan nan nan nan nan nan nan nan nan nan nan nan nan 317 nan nan nan nan nan nan nan nan nan nan nan nan nan nan nan nan nan
275 nan nan nan nan nan nan nan nan nan nan nan nan nan nan nan nan nan nan nan nan nan nan nan nan nan nan nan nan nan nan nan nan nan nan nan nan nan nan nan nan nan nan nan nan nan nan nan nan nan nan nan nan nan nan nan nan nan nan nan nan nan nan nan nan nan nan nan nan nan nan nan nan nan
nan nan nan nan nan nan nan nan nan nan nan nan nan nan nan nan nan nan nan nan nan nan nan nan nan nan nan nan nan nan nan nan nan nan nan nan nan nan nan nan nan nan nan nan nan nan nan nan nan nan nan nan nan nan nan nan nan nan nan nan nan nan nan nan nan nan nan nan nan nan nan nan nan nan
nan nan nan nan nan nan nan nan nan nan nan nan nan nan nan nan nan nan nan nan nan nan nan nan nan nan nan nan nan nan nan nan nan nan nan nan nan nan nan nan nan nan nan nan nan nan nan nan nan nan nan nan nan nan nan nan nan nan nan nan nan nan nan nan nan nan nan nan nan nan nan nan nan nan
nan nan nan nan nan nan nan nan nan nan nan nan nan nan nan nan nan nan nan nan nan nan nan nan nan nan nan nan nan nan nan nan nan nan nan nan nan nan nan nan nan nan nan nan nan nan nan nan nan nan nan nan nan nan nan nan nan nan nan nan nan nan nan nan nan nan nan nan nan nan nan nan nan nan
nan nan nan nan nan nan nan nan nan nan nan nan nan nan nan nan nan nan nan nan nan nan nan nan nan nan nan nan nan nan nan nan nan nan nan nan nan nan nan nan nan nan nan nan nan nan nan nan nan nan nan nan nan nan nan nan nan nan nan nan nan nan nan nan nan nan nan nan nan nan nan nan nan nan